| time (UTC) | temp C | wind direction | speed KPH | gust KPH | rain 1hr cm | rain 24hr cm | rain mn cm | humidity % | barometer mb |
| 20260905130021 | 7 | 280 | 0.0 | 0.0 | 0.00 | 0.00 | 0.00 | 72 | 1027.9 |
| 20260905125022 | 7 | 280 | 0.0 | 0.0 | 0.00 | 0.00 | 0.00 | 73 | 1027.9 |
| 20260905124021 | 7 | 280 | 3.2 | 0.0 | 0.00 | 0.00 | 0.00 | 73 | 1027.9 |
| 20260905121038 | 7 | 280 | 3.2 | 0.0 | 0.00 | 0.00 | 0.00 | 70 | 1028.2 |
| 20260905120039 | 8 | 280 | 0.0 | 0.0 | 0.00 | 0.00 | 0.00 | 69 | 1028.1 |
| 20260905115036 | 8 | 280 | 0.0 | 0.0 | 0.00 | 0.00 | 0.00 | 68 | 1028.1 |
| 20260905113038 | 9 | 280 | 0.0 | 0.0 | 0.00 | 0.00 | 0.00 | 63 | 1028.3 |
| 20260905112018 | 9 | 280 | 0.0 | 0.0 | 0.00 | 0.00 | 0.00 | 64 | 1028.1 |
| 20260905105035 | 8 | 280 | 0.0 | 0.0 | 0.00 | 0.00 | 0.00 | 67 | 1027.1 |
| 20260905104036 | 8 | 280 | 0.0 | 0.0 | 0.00 | 0.00 | 0.00 | 67 | 1027.1 |
| 20260905103031 | 9 | 280 | 0.0 | 0.0 | 0.00 | 0.00 | 0.00 | 65 | 1027.2 |
| 20260905102031 | 10 | 280 | 0.0 | 0.0 | 0.00 | 0.00 | 0.00 | 64 | 1027.1 |
| 20260905095035 | 11 | 280 | 0.0 | 0.0 | 0.00 | 0.00 | 0.00 | 58 | 1026.8 |
| 20260905094036 | 12 | 280 | 0.0 | 0.0 | 0.00 | 0.00 | 0.00 | 57 | 1026.7 |
| 20260905093032 | 11 | 280 | 0.0 | 0.0 | 0.00 | 0.00 | 0.00 | 59 | 1026.5 |
| 20260905092032 | 10 | 280 | 0.0 | 0.0 | 0.00 | 0.00 | 0.00 | 61 | 1026.5 |
| 20260905091028 | 9 | 280 | 0.0 | 0.0 | 0.00 | 0.00 | 0.00 | 64 | 1026.6 |
| 20260905090029 | 9 | 280 | 3.2 | 0.0 | 0.00 | 0.00 | 0.00 | 65 | 1026.6 |
| 20260905085030 | 9 | 280 | 0.0 | 0.0 | 0.00 | 0.00 | 0.00 | 65 | 1026.6 |
| 20260905084028 | 10 | 280 | 0.0 | 0.0 | 0.00 | 0.00 | 0.00 | 64 | 1026.6 |
| 20260905083025 | 10 | 280 | 0.0 | 0.0 | 0.00 | 0.00 | 0.00 | 64 | 1026.6 |
| 20260905081024 | 10 | 280 | 0.0 | 0.0 | 0.00 | 0.00 | 0.00 | 62 | 1026.3 |
| 20260905080020 | 10 | 280 | 0.0 | 0.0 | 0.00 | 0.00 | 0.00 | 61 | 1026.2 |
| 20260905075024 | 11 | 280 | 1.6 | 0.0 | 0.00 | 0.00 | 0.00 | 61 | 1026.2 |
| 20260905074020 | 11 | 280 | 0.0 | 0.0 | 0.00 | 0.00 | 0.00 | 59 | 1026.2 |
| 20260905073039 | 12 | 280 | 0.0 | 0.0 | 0.00 | 0.00 | 0.00 | 56 | 1026.3 |
| 20260905072020 | 12 | 280 | 0.0 | 0.0 | 0.00 | 0.00 | 0.00 | 55 | 1026.3 |
| 20260905071037 | 12 | 280 | 0.0 | 0.0 | 0.00 | 0.00 | 0.00 | 54 | 1026.1 |
| 20260905070033 | 13 | 280 | 0.0 | 0.0 | 0.00 | 0.00 | 0.00 | 53 | 1025.9 |
| 20260905063022 | 13 | 280 | 0.0 | 0.0 | 0.00 | 0.00 | 0.00 | 52 | 1026.0 |
| 20260905062037 | 13 | 280 | 0.0 | 0.0 | 0.00 | 0.00 | 0.00 | 53 | 1026.0 |
| 20260905061036 | 13 | 280 | 0.0 | 0.0 | 0.00 | 0.00 | 0.00 | 53 | 1026.1 |
| 20260905060033 | 13 | 280 | 0.0 | 0.0 | 0.00 | 0.00 | 0.00 | 53 | 1026.1 |
| 20260905055036 | 13 | 280 | 0.0 | 0.0 | 0.00 | 0.00 | 0.00 | 52 | 1026.0 |
| 20260905054033 | 13 | 280 | 0.0 | 0.0 | 0.00 | 0.00 | 0.00 | 52 | 1025.8 |
| 20260905053029 | 13 | 280 | 0.0 | 0.0 | 0.00 | 0.00 | 0.00 | 53 | 1025.8 |
| 20260905052026 | 13 | 280 | 0.0 | 0.0 | 0.00 | 0.00 | 0.00 | 53 | 1026.0 |
| 20260905051026 | 13 | 280 | 0.0 | 0.0 | 0.00 | 0.00 | 0.00 | 54 | 1026.1 |
| 20260905050027 | 12 | 280 | 0.0 | 0.0 | 0.00 | 0.00 | 0.00 | 55 | 1026.0 |
| 20260905045023 | 12 | 280 | 0.0 | 0.0 | 0.00 | 0.00 | 0.00 | 57 | 1026.1 |
| 20260905044039 | 11 | 280 | 0.0 | 0.0 | 0.00 | 0.00 | 0.00 | 59 | 1026.2 |
| 20260905043035 | 11 | 280 | 0.0 | 0.0 | 0.00 | 0.00 | 0.00 | 60 | 1026.1 |
| 20260905041035 | 12 | 280 | 0.0 | 0.0 | 0.00 | 0.00 | 0.00 | 57 | 1026.1 |
| 20260905040034 | 13 | 280 | 0.0 | 0.0 | 0.00 | 0.00 | 0.00 | 55 | 1026.1 |
| 20260905035028 | 13 | 280 | 1.6 | 0.0 | 0.00 | 0.00 | 0.00 | 54 | 1026.1 |
| 20260905034026 | 13 | 280 | 3.2 | 0.0 | 0.00 | 0.00 | 0.00 | 54 | 1026.1 |
| 20260905032025 | 13 | 280 | 1.6 | 0.0 | 0.00 | 0.00 | 0.00 | 54 | 1025.9 |
| 20260905030022 | 15 | 280 | 0.0 | 0.0 | 0.00 | 0.00 | 0.00 | 51 | 1025.9 |
| 20260905024023 | 15 | 280 | 0.0 | 0.0 | 0.00 | 0.00 | 0.00 | 49 | 1025.7 |
| 20260905023041 | 15 | 280 | 0.0 | 0.0 | 0.00 | 0.00 | 0.00 | 48 | 1025.6 |
| 20260905022037 | 16 | 280 | 0.0 | 0.0 | 0.00 | 0.00 | 0.00 | 47 | 1025.4 |
| 20260905021034 | 16 | 280 | 0.0 | 0.0 | 0.00 | 0.00 | 0.00 | 45 | 1025.0 |
| 20260905020034 | 16 | 280 | 0.0 | 0.0 | 0.00 | 0.00 | 0.00 | 45 | 1024.9 |
| 20260905014036 | 18 | 280 | 0.0 | 0.0 | 0.00 | 0.00 | 0.00 | 40 | 1024.7 |
| 20260905011026 | 20 | 280 | 0.0 | 0.0 | 0.00 | 0.00 | 0.00 | 37 | 1024.4 |
| 20260905010027 | 20 | 211 | 0.0 | 0.0 | 0.00 | 0.00 | 0.00 | 37 | 1024.4 |
| 20260905005022 | 20 | 252 | 0.0 | 0.0 | 0.00 | 0.00 | 0.00 | 36 | 1024.3 |
| 20260905004022 | 21 | 250 | 0.0 | 0.0 | 0.00 | 0.00 | 0.00 | 35 | 1024.3 |
| 20260905003039 | 21 | 203 | 1.6 | 0.0 | 0.00 | 0.00 | 0.00 | 35 | 1024.3 |
| 20260905002036 | 21 | 194 | 1.6 | 0.0 | 0.00 | 0.00 | 0.00 | 33 | 1024.2 |
| 20260905001035 | 21 | 219 | 1.6 | 0.0 | 0.00 | 0.00 | 0.00 | 33 | 1024.3 |
| 20260904235032 | 22 | 227 | 1.6 | 0.0 | 0.00 | 0.00 | 0.00 | 32 | 1024.3 |
| 20260904234034 | 22 | 190 | 1.6 | 0.0 | 0.00 | 0.00 | 0.00 | 32 | 1024.3 |
| 20260904232038 | 23 | 225 | 0.0 | 0.0 | 0.00 | 0.00 | 0.00 | 31 | 1024.4 |
| 20260904231034 | 23 | 187 | 1.6 | 0.0 | 0.00 | 0.00 | 0.00 | 30 | 1024.5 |
| 20260904225028 | 23 | 130 | 1.6 | 0.0 | 0.00 | 0.00 | 0.00 | 32 | 1024.4 |
| 20260904223033 | 24 | 132 | 1.6 | 0.0 | 0.00 | 0.00 | 0.00 | 30 | 1024.5 |
| 20260904222030 | 25 | 259 | 0.0 | 0.0 | 0.00 | 0.00 | 0.00 | 31 | 1024.4 |
| 20260904221030 | 24 | 207 | 1.6 | 0.0 | 0.00 | 0.00 | 0.00 | 30 | 1024.5 |
| 20260904215026 | 24 | 218 | 1.6 | 0.0 | 0.00 | 0.00 | 0.00 | 30 | 1024.7 |
| 20260904214027 | 24 | 213 | 3.2 | 0.0 | 0.00 | 0.00 | 0.00 | 30 | 1024.8 |
| 20260904213027 | 24 | 126 | 0.0 | 0.0 | 0.00 | 0.00 | 0.00 | 31 | 1024.8 |
| 20260904212026 | 23 | 186 | 1.6 | 0.0 | 0.00 | 0.00 | 0.00 | 31 | 1024.7 |
| 20260904211022 | 23 | 266 | 3.2 | 0.0 | 0.00 | 0.00 | 0.00 | 35 | 1024.8 |
| 20260904210023 | 23 | 272 | 3.2 | 0.0 | 0.00 | 0.00 | 0.00 | 35 | 1024.9 |
| 20260904205039 | 24 | 142 | 1.6 | 0.0 | 0.00 | 0.00 | 0.00 | 33 | 1024.8 |
| 20260904204036 | 24 | 168 | 3.2 | 0.0 | 0.00 | 0.00 | 0.00 | 35 | 1024.8 |
| 20260904203032 | 24 | 223 | 3.2 | 0.0 | 0.00 | 0.00 | 0.00 | 34 | 1025.1 |
| 20260904202029 | 23 | 254 | 1.6 | 0.0 | 0.00 | 0.00 | 0.00 | 34 | 1025.0 |
| 20260904201029 | 22 | 161 | 1.6 | 0.0 | 0.00 | 0.00 | 0.00 | 35 | 1025.4 |
| 20260904200025 | 23 | 159 | 1.6 | 0.0 | 0.00 | 0.00 | 0.00 | 35 | 1025.4 |
| 20260904195024 | 22 | 288 | 3.2 | 0.0 | 0.00 | 0.00 | 0.00 | 35 | 1025.5 |
| 20260904194041 | 23 | 252 | 3.2 | 0.0 | 0.00 | 0.00 | 0.00 | 36 | 1025.5 |
| 20260904193039 | 23 | 269 | 3.2 | 0.0 | 0.00 | 0.00 | 0.00 | 35 | 1025.5 |
| 20260904192038 | 22 | 98 | 1.6 | 0.0 | 0.00 | 0.00 | 0.00 | 36 | 1025.5 |
| 20260904191032 | 22 | 315 | 1.6 | 0.0 | 0.00 | 0.00 | 0.00 | 37 | 1025.7 |
| 20260904190028 | 22 | 281 | 3.2 | 0.0 | 0.00 | 0.00 | 0.00 | 38 | 1025.8 |
| 20260904184026 | 22 | 252 | 3.2 | 0.0 | 0.00 | 0.00 | 0.00 | 38 | 1026.2 |
| 20260904183022 | 22 | 227 | 3.2 | 0.0 | 0.00 | 0.00 | 0.00 | 39 | 1026.4 |
| 20260904182021 | 22 | 175 | 1.6 | 0.0 | 0.00 | 0.00 | 0.00 | 39 | 1026.6 |
| 20260904181036 | 22 | 331 | 1.6 | 0.0 | 0.00 | 0.00 | 0.00 | 41 | 1026.8 |
| 20260904180035 | 22 | 102 | 1.6 | 0.0 | 0.00 | 0.00 | 0.00 | 41 | 1026.9 |
| 20260904175038 | 21 | 210 | 1.6 | 0.0 | 0.00 | 0.00 | 0.00 | 41 | 1026.7 |
| 20260904174035 | 21 | 261 | 3.2 | 0.0 | 0.00 | 0.00 | 0.00 | 45 | 1026.9 |
| 20260904173039 | 21 | 130 | 3.2 | 0.0 | 0.00 | 0.00 | 0.00 | 44 | 1026.3 |
| 20260904172036 | 20 | 132 | 1.6 | 0.0 | 0.00 | 0.00 | 0.00 | 46 | 1026.2 |
| 20260904171039 | 20 | 214 | 3.2 | 0.0 | 0.00 | 0.00 | 0.00 | 46 | 1026.2 |
| 20260904170034 | 20 | 194 | 3.2 | 0.0 | 0.00 | 0.00 | 0.00 | 45 | 1026.0 |
| 20260904165035 | 20 | 234 | 3.2 | 0.0 | 0.00 | 0.00 | 0.00 | 47 | 1026.0 |
| 20260904164031 | 20 | 86 | 1.6 | 0.0 | 0.00 | 0.00 | 0.00 | 48 | 1026.1 |
| 20260904163031 | 18 | 337 | 0.0 | 0.0 | 0.00 | 0.00 | 0.00 | 49 | 1026.2 |
| 20260904162027 | 17 | 97 | 4.8 | 0.0 | 0.00 | 0.00 | 0.00 | 50 | 1026.3 |
| 20260904161025 | 17 | 65 | 0.0 | 0.0 | 0.00 | 0.00 | 0.00 | 48 | 1026.4 |
| 20260904160021 | 16 | 82 | 1.6 | 0.0 | 0.00 | 0.00 | 0.00 | 50 | 1026.6 |
| 20260904155038 | 15 | 29 | 0.0 | 0.0 | 0.00 | 0.00 | 0.00 | 48 | 1026.8 |
| 20260904154038 | 15 | 84 | 0.0 | 0.0 | 0.00 | 0.00 | 0.00 | 50 | 1026.8 |
| 20260904153035 | 15 | 15 | 0.0 | 0.0 | 0.00 | 0.00 | 0.00 | 49 | 1026.7 |
| 20260904151031 | 13 | 14 | 0.0 | 0.0 | 0.00 | 0.00 | 0.00 | 52 | 1027.1 |
| 20260904150027 | 13 | 11 | 0.0 | 0.0 | 0.00 | 0.00 | 0.00 | 54 | 1026.5 |
| 20260904145027 | 12 | 360 | 0.0 | 0.0 | 0.00 | 0.00 | 0.00 | 54 | 1026.4 |
| 20260904144021 | 12 | 360 | 0.0 | 0.0 | 0.00 | 0.00 | 0.00 | 57 | 1026.5 |
| 20260904143022 | 11 | 350 | 0.0 | 0.0 | 0.00 | 0.00 | 0.00 | 58 | 1026.5 |
| 20260904142022 | 11 | 153 | 0.0 | 0.0 | 0.00 | 0.00 | 0.00 | 58 | 1026.4 |
| 20260904141023 | 11 | 153 | 0.0 | 0.0 | 0.00 | 0.00 | 0.00 | 59 | 1026.1 |
| 20260904140020 | 11 | 155 | 0.0 | 0.0 | 0.00 | 0.00 | 0.00 | 59 | 1026.0 |
| 20260904135023 | 12 | 161 | 0.0 | 0.0 | 0.00 | 0.00 | 0.00 | 58 | 1025.9 |
| 20260904133037 | 8 | 215 | 0.0 | 0.0 | 0.00 | 0.00 | 0.00 | 70 | 1025.8 |
| 20260904132037 | 7 | 215 | 0.0 | 0.0 | 0.00 | 0.00 | 0.00 | 74 | 1025.4 |
| 20260904131036 | 6 | 215 | 0.0 | 0.0 | 0.00 | 0.00 | 0.00 | 76 | 1025.5 |